Location: LDNL
(36.4545°S, 141.6685°E)
Time: 09:47:52
(UTC+10:00)

Vanguard 1 - Pass Details

Date: 12 August 2022
Orbit: 649 x 3832 km, 34.2° (Epoch: 27 September)

Event Time Altitude Azimuth Distance (km) Brightness Sun altitude
Rises 20:19:40 0° 266° (W) 3,315 14.0 -29.0°
Reaches altitude 10° 20:22:20 10° 270° (W) 2,202 12.8 -29.6°
Enters shadow 20:25:42 40° 298° (WNW) 975 10.3 -30.2°
